Weather History for Columbus, OH

Change the Weather History Date:

Wednesday, August 21, 2013

  Actual Average Record
Temperature  
Mean Temperature 76 °F 74 °F  
Max Temperature 86 °F 84 °F 99 °F (1936)
Min Temperature 65 °F 64 °F 44 °F (1950)
Degree Days  
Heating Degree Days 0 0  
Month to date heating degree days 4 0  
Since 1 June heating degree days 10 19  
Since 1 July heating degree days 4 0  
Cooling Degree Days 11 9  
Month to date cooling degree days 154 200  
Year to date cooling degree days 873 808  
Since 1 June cooling degree days 712 726  
Growing Degree Days 25 (Base 50)    
Moisture  
Dew Point 64 °F    
Average Humidity 74    
Maximum Humidity 93    
Minimum Humidity 55    
Precipitation  
Precipitation T in 0.11 in 1.40 in (1913)
Month to date precipitation 1.71 2.26  
Year to date precipitation 25.51 26.63  
Snow  
Snow 0.00 in 0.00 in 0.00 in ()
Month to date snowfall 0.0 0.0  
Since 1 June snowfall 0.0 0.0  
Since 1 July snowfall 0.0 0.0  
Snow Depth 0.00 in    
Sea Level Pressure  
Sea Level Pressure 30.13 in    
Wind  
Wind Speed 4 mph (SSE)    
Max Wind Speed 13 mph    
Max Gust Speed 16 mph    
Visibility 9 miles    
Events      
T = Trace of Precipitation, MM = Missing Value Source: NWS Daily Summary

Daily Weather History Graph

Daily Weather History Graph

Search for Another Location

Airport:

Trip Planner

Search our weather history database for the weather conditions in past years. The results will help you decide how hot, cold, wet, or windy it might be!

Date:

Astronomy

Aug. 21, 2013 Rise Set
Actual Time 6:49 AM EDT 8:19 PM EDT
Civil Twilight 6:20 AM EDT 8:47 PM EDT
Nautical Twilight 5:46 AM EDT 9:21 PM EDT
Astronomical Twilight 5:09 AM EDT 9:58 PM EDT
Moon 8:27 PM EDT (8/21) 7:27 AM EDT (8/21)
Length of Visible Light 14h 27m
Length of Day
13h 30m
Full, 100% of the Moon is Illuminated
Aug 21
Full
Aug 28
Last Quarter
Sep 5
New
Sep 12
First Quarter
Sep 19
Full

Hourly Weather History & Observations

Time (EDT) Temp. Heat Index Dew Point Humidity Pressure Visibility Wind Dir Wind Speed Gust Speed Precip Events Conditions
12:51 AM 70.0 °F - 64.0 °F 81% 30.15 in 8.0 mi Calm Calm - N/A   Scattered Clouds
1:51 AM 70.0 °F - 63.0 °F 78% 30.14 in 9.0 mi Calm Calm - N/A   Partly Cloudy
2:51 AM 66.9 °F - 63.0 °F 87% 30.14 in 8.0 mi Calm Calm - N/A   Partly Cloudy
3:51 AM 66.0 °F - 63.0 °F 90% 30.13 in 8.0 mi Calm Calm - N/A   Partly Cloudy
4:51 AM 64.9 °F - 62.1 °F 90% 30.14 in 8.0 mi Calm Calm - N/A   Partly Cloudy
5:51 AM 64.9 °F - 62.1 °F 90% 30.14 in 8.0 mi Calm Calm - N/A   Overcast
6:51 AM 66.9 °F - 62.1 °F 84% 30.15 in 6.0 mi Calm Calm - N/A   Haze
7:51 AM 69.1 °F - 63.0 °F 81% 30.16 in 6.0 mi Calm Calm - N/A   Haze
8:51 AM 73.0 °F - 64.0 °F 73% 30.17 in 7.0 mi SE 3.5 mph - N/A   Scattered Clouds
9:51 AM 78.1 °F - 63.0 °F 60% 30.17 in 8.0 mi SSE 6.9 mph - N/A   Scattered Clouds
10:51 AM 79.0 °F - 64.0 °F 60% 30.18 in 8.0 mi South 8.1 mph - N/A   Mostly Cloudy
11:51 AM 81.0 °F 82.7 °F 64.9 °F 58% 30.17 in 9.0 mi South 3.5 mph - N/A   Mostly Cloudy
12:51 PM 82.9 °F 84.6 °F 64.9 °F 54% 30.15 in 9.0 mi Variable 4.6 mph - N/A   Scattered Clouds
1:51 PM 84.9 °F 87.1 °F 66.0 °F 53% 30.12 in 9.0 mi East 5.8 mph - N/A   Scattered Clouds
2:51 PM 82.9 °F 84.6 °F 64.9 °F 54% 30.12 in 10.0 mi SSE 6.9 mph - N/A   Mostly Cloudy
3:51 PM 82.0 °F 84.5 °F 66.9 °F 60% 30.09 in 10.0 mi SE 8.1 mph - N/A   Mostly Cloudy
4:51 PM 80.1 °F 82.7 °F 68.0 °F 67% 30.09 in 8.0 mi SSE 8.1 mph - N/A   Overcast
5:51 PM 80.1 °F 82.9 °F 69.1 °F 69% 30.11 in 10.0 mi SSW 8.1 mph - 0.00 in   Mostly Cloudy
6:51 PM 79.0 °F - 66.9 °F 66% 30.09 in 10.0 mi WSW 6.9 mph - N/A   Mostly Cloudy
7:51 PM 77.0 °F - 64.0 °F 64% 30.06 in 10.0 mi SSW 4.6 mph - N/A   Mostly Cloudy
8:51 PM 73.9 °F - 63.0 °F 68% 30.08 in 10.0 mi SSW 9.2 mph - N/A   Mostly Cloudy
9:51 PM 72.0 °F - 63.0 °F 73% 30.08 in 10.0 mi Variable 3.5 mph - N/A   Mostly Cloudy
10:51 PM 70.0 °F - 63.0 °F 78% 30.10 in 10.0 mi East 4.6 mph - N/A   Mostly Cloudy
11:51 PM 70.0 °F - 63.0 °F 78% 30.11 in 10.0 mi SSE 6.9 mph - N/A   Scattered Clouds